Вернуться в каталог

DELTA 1 DEB

АктивенSSO
NORAD 40763·DEBRIS·🇺🇸 United States

Запущен Jul 29, 1976 с Vandenberg Space Force Base

Loading…

Ближайшие Пролёты (ближайшие 24 часа)

TLE

СвежийSource: Space-Track

Эпоха: Sep 14, 2026, 04:21 UTC

1 40763U 76077GG  26257.18189290  .00000241  00000-0  16582-2 0  9998
2 40763 101.5765 235.0239 0034576  23.4154 336.8488 12.59308650103323

Отслеживайте DELTA 1 DEB в реальном времени с AllMySat

Download on the App Store